QPF
0.00 0.00 0.00 0.00 0.00 0.00 0.00 0.00 0.00 0.00 0.00 0.00 0.00 0.00 0.00 0.00 0.00 0.00 0.00 0.01 0.01 0.01 0.01 0.01 0.01 0.01 0.01 0.02 0.02 0.03 0.04 0.06 0.06 0.04 0.02 0.02 0.03 0.03 0.04 0.05 0.05 0.05 0.05
0.00 0.00 0.00 0.00 0.00 0.00 0.00 0.00 0.00 0.00 0.00 0.00 0.00 0.00 0.00 0.00 0.00 0.00 0.00 0.00 0.01 0.01 0.01 0.01 0.01 0.01 0.01 0.02 0.02 0.03 0.04 0.05 0.06 0.06 0.05 0.04 0.04 0.04 0.05 0.07 0.06 0.05 0.05
0.00 0.00 0.00 0.00 0.00 0.00 0.00 0.00 0.00 0.00 0.00 0.00 0.00 0.00 0.00 0.00 0.00 0.00 0.00 0.00 0.00 0.00 0.01 0.01 0.01 0.01 0.01 0.01 0.02 0.03 0.04 0.05 0.06 0.08 0.07 0.06 0.06 0.06 0.07 0.08 0.08 0.06 0.05
0.00 0.00 0.00 0.00 0.00 0.00 0.00 0.00 0.00 0.00 0.00 0.00 0.00 0.00 0.00 0.00 0.00 0.00 0.00 0.00 0.00 0.00 0.00 0.01 0.01 0.01 0.01 0.02 0.02 0.03 0.04 0.07 0.09 0.10 0.10 0.08 0.07 0.07 0.09 0.09 0.08 0.07 0.06
0.00 0.00 0.00 0.00 0.00 0.00 0.00 0.00 0.00 0.00 0.00 0.00 0.00 0.00 0.00 0.00 0.00 0.00 0.00 0.00 0.00 0.00 0.00 0.00 0.00 0.01 0.02 0.03 0.03 0.03 0.04 0.07 0.10 0.11 0.10 0.09 0.08 0.07 0.08 0.08 0.09 0.09 0.09
0.00 0.00 0.00 0.00 0.00 0.00 0.00 0.00 0.00 0.00 0.00 0.00 0.00 0.00 0.00 0.00 0.00 0.00 0.00 0.00 0.00 0.00 0.00 0.00 0.00 0.01 0.02 0.03 0.04 0.05 0.05 0.07 0.09 0.10 0.11 0.10 0.08 0.07 0.08 0.11 0.13 0.14 0.11
0.00 0.00 0.00 0.00 0.00 0.00 0.00 0.00 0.00 0.00 0.00 0.00 0.00 0.00 0.00 0.00 0.00 0.00 0.00 0.00 0.00 0.00 0.00 0.00 0.00 0.00 0.01 0.01 0.02 0.05 0.06 0.07 0.09 0.09 0.11 0.10 0.10 0.10 0.12 0.15 0.14 0.12 0.09
0.00 0.00 0.00 0.00 0.00 0.00 0.00 0.00 0.00 0.00 0.00 0.00 0.00 0.00 0.00 0.00 0.00 0.00 0.00 0.00 0.00 0.00 0.00 0.00 0.00 0.00 0.00 0.01 0.02 0.04 0.05 0.07 0.10 0.12 0.12 0.11 0.12 0.13 0.14 0.14 0.14 0.16 0.14
0.00 0.00 0.00 0.00 0.00 0.00 0.00 0.00 0.00 0.00 0.00 0.00 0.00 0.00 0.00 0.00 0.00 0.00 0.00 0.00 0.00 0.00 0.00 0.00 0.00 0.00 0.01 0.02 0.03 0.04 0.05 0.07 0.11 0.15 0.15 0.14 0.14 0.15 0.15 0.16 0.16 0.15 0.13
0.00 0.00 0.00 0.00 0.00 0.00 0.00 0.00 0.00 0.00 0.00 0.00 0.00 0.00 0.00 0.00 0.00 0.00 0.00 0.00 0.00 0.00 0.00 0.00 0.01 0.01 0.02 0.03 0.04 0.05 0.07 0.08 0.12 0.15 0.16 0.16 0.17 0.16 0.15 0.13 0.12 0.13 0.12
0.00 0.00 0.00 0.00 0.00 0.00 0.00 0.00 0.00 0.00 0.00 0.00 0.00 0.00 0.00 0.00 0.00 0.00 0.00 0.00 0.00 0.00 0.00 0.01 0.01 0.02 0.03 0.04 0.06 0.07 0.07 0.10 0.13 0.14 0.15 0.17 0.17 0.17 0.17 0.15 0.13 0.11 0.10
0.00 0.00 0.00 0.00 0.00 0.00 0.00 0.00 0.00 0.00 0.00 0.00 0.00 0.00 0.00 0.00 0.00 0.00 0.01 0.01 0.01 0.01 0.01 0.02 0.02 0.03 0.04 0.06 0.08 0.09 0.11 0.14 0.14 0.15 0.15 0.16 0.16 0.16 0.15 0.14 0.13 0.12 0.10
0.00 0.00 0.00 0.00 0.00 0.00 0.00 0.00 0.00 0.00 0.00 0.00 0.00 0.00 0.00 0.00 0.00 0.01 0.01 0.02 0.02 0.02 0.03 0.03 0.04 0.04 0.05 0.07 0.09 0.11 0.15 0.15 0.14 0.14 0.14 0.14 0.14 0.13 0.13 0.13 0.13 0.12 0.10
0.00 0.00 0.00 0.00 0.00 0.00 0.00 0.00 0.00 0.01 0.01 0.01 0.01 0.01 0.01 0.01 0.01 0.02 0.02 0.03 0.03 0.04 0.04 0.05 0.05 0.06 0.07 0.08 0.10 0.13 0.13 0.12 0.11 0.12 0.12 0.12 0.12 0.11 0.11 0.10 0.09 0.08 0.08
0.00 0.00 0.00 0.00 0.00 0.00 0.01 0.01 0.01 0.01 0.01 0.02 0.02 0.02 0.02 0.02 0.02 0.03 0.03 0.04 0.05 0.05 0.06 0.06 0.06 0.07 0.08 0.09 0.10 0.11 0.12 0.11 0.11 0.10 0.10 0.09 0.09 0.09 0.09 0.08 0.08 0.07 0.05
0.00 0.00 0.00 0.00 0.01 0.01 0.01 0.02 0.02 0.02 0.03 0.03 0.03 0.03 0.03 0.04 0.04 0.04 0.04 0.05 0.05 0.06 0.06 0.06 0.06 0.07 0.07 0.07 0.08 0.08 0.09 0.08 0.08 0.08 0.08 0.07 0.07 0.07 0.07 0.06 0.06 0.05 0.04
0.00 0.01 0.01 0.01 0.01 0.02 0.02 0.02 0.03 0.03 0.04 0.04 0.04 0.04 0.05 0.05 0.05 0.05 0.05 0.06 0.06 0.06 0.06 0.06 0.06 0.06 0.06 0.06 0.06 0.06 0.06 0.06 0.06 0.06 0.06 0.06 0.06 0.06 0.05 0.05 0.04 0.04 0.03
0.01 0.01 0.01 0.02 0.02 0.03 0.03 0.04 0.04 0.04 0.04 0.04 0.05 0.05 0.05 0.05 0.05 0.05 0.05 0.05 0.06 0.05 0.05 0.05 0.05 0.05 0.05 0.05 0.05 0.05 0.04 0.04 0.04 0.04 0.04 0.04 0.04 0.04 0.03 0.03 0.03 0.03 0.02
0.01 0.01 0.02 0.02 0.03 0.04 0.04 0.05 0.05 0.05 0.05 0.05 0.05 0.05 0.05 0.05 0.04 0.04 0.04 0.04 0.04 0.04 0.04 0.04 0.03 0.03 0.03 0.03 0.03 0.03 0.03 0.03 0.03 0.03 0.03 0.03 0.03 0.03 0.02 0.02 0.02 0.02 0.02
0.02 0.02 0.03 0.04 0.04 0.05 0.05 0.06 0.06 0.06 0.06 0.06 0.06 0.05 0.05 0.04 0.04 0.03 0.03 0.03 0.03 0.03 0.03 0.02 0.02 0.02 0.02 0.02 0.02 0.02 0.02 0.02 0.02 0.02 0.02 0.02 0.02 0.02 0.02 0.01 0.01 0.01 0.01
0.02 0.03 0.04 0.05 0.05 0.05 0.06 0.06 0.07 0.07 0.07 0.06 0.06 0.05 0.05 0.04 0.04 0.03 0.03 0.03 0.02 0.02 0.02 0.02 0.01 0.01 0.01 0.01 0.01 0.01 0.01 0.01 0.01 0.01 0.01 0.01 0.01 0.01 0.01 0.01 0.01 0.01 0.01
0.03 0.04 0.04 0.05 0.06 0.06 0.07 0.07 0.07 0.07 0.06 0.06 0.05 0.05 0.04 0.03 0.03 0.03 0.02 0.02 0.02 0.02 0.01 0.01 0.01 0.01 0.01 0.01 0.01 0.01 0.01 0.01 0.01 0.01 0.01 0.01 0.01 0.01 0.01 0.01 0.01 0.01 0.01
0.04 0.04 0.05 0.06 0.06 0.06 0.07 0.07 0.06 0.06 0.06 0.05 0.05 0.04 0.03 0.03 0.02 0.02 0.02 0.02 0.02 0.01 0.01 0.01 0.01 0.01 0.01 0.00 0.00 0.00 0.00 0.00 0.00 0.00 0.00 0.00 0.00 0.00 0.01 0.01 0.01 0.01 0.01
0.04 0.05 0.05 0.06 0.06 0.06 0.06 0.06 0.05 0.05 0.05 0.04 0.04 0.03 0.03 0.02 0.02 0.02 0.02 0.01 0.01 0.01 0.01 0.01 0.01 0.00 0.00 0.00 0.00 0.00 0.00 0.00 0.00 0.00 0.00 0.00 0.00 0.00 0.00 0.00 0.00 0.00 0.00
0.04 0.05 0.05 0.05 0.05 0.05 0.05 0.04 0.04 0.04 0.03 0.03 0.03 0.02 0.02 0.02 0.02 0.01 0.01 0.01 0.01 0.01 0.01 0.01 0.01 0.00 0.00 0.00 0.00 0.00 0.00 0.00 0.00 0.00 0.00 0.00 0.00 0.00 0.00 0.00 0.00 0.00 0.00
0.03 0.04 0.04 0.04 0.04 0.04 0.04 0.03 0.03 0.03 0.02 0.02 0.02 0.02 0.01 0.01 0.01 0.01 0.01 0.01 0.01 0.01 0.00 0.00 0.00 0.00 0.00 0.00 0.00 0.00 0.00 0.00 0.00 0.00 0.00 0.00 0.00 0.00 0.00 0.00 0.00 0.00 0.00
MSLP
1018.42 1018.41 1018.43 1018.44 1018.45 1018.45 1018.44 1018.42 1018.41 1018.39 1018.39 1018.37 1018.35 1018.29 1018.20 1018.07 1017.91 1017.75 1017.59 1017.49 1017.45 1017.49 1017.61 1017.78 1017.99 1018.18 1018.34 1018.43 1018.44 1018.39 1018.29 1018.19 1018.11 1018.08 1018.13 1018.27 1018.48 1018.75 1019.04 1019.34 1019.63 1019.90 1020.16
1019.11 1019.10 1019.09 1019.06 1019.00 1018.92 1018.82 1018.72 1018.61 1018.52 1018.43 1018.34 1018.24 1018.11 1017.94 1017.72 1017.48 1017.22 1016.98 1016.79 1016.66 1016.62 1016.67 1016.78 1016.93 1017.09 1017.22 1017.31 1017.33 1017.30 1017.24 1017.17 1017.12 1017.13 1017.20 1017.36 1017.58 1017.85 1018.15 1018.46 1018.77 1019.07 1019.37
1019.78 1019.77 1019.74 1019.67 1019.56 1019.40 1019.22 1019.02 1018.83 1018.64 1018.46 1018.28 1018.10 1017.88 1017.63 1017.34 1017.03 1016.70 1016.39 1016.13 1015.94 1015.84 1015.83 1015.89 1016.00 1016.13 1016.24 1016.31 1016.33 1016.31 1016.25 1016.18 1016.14 1016.15 1016.22 1016.38 1016.60 1016.88 1017.20 1017.54 1017.89 1018.23 1018.59
1020.40 1020.39 1020.35 1020.24 1020.08 1019.85 1019.59 1019.31 1019.02 1018.74 1018.48 1018.21 1017.94 1017.65 1017.33 1016.97 1016.60 1016.22 1015.87 1015.57 1015.35 1015.21 1015.16 1015.19 1015.27 1015.36 1015.44 1015.48 1015.47 1015.42 1015.33 1015.24 1015.16 1015.14 1015.20 1015.34 1015.56 1015.84 1016.19 1016.57 1016.98 1017.39 1017.82
1020.96 1020.94 1020.88 1020.74 1020.53 1020.24 1019.91 1019.56 1019.19 1018.83 1018.48 1018.14 1017.80 1017.44 1017.06 1016.66 1016.25 1015.84 1015.47 1015.15 1014.91 1014.75 1014.69 1014.69 1014.74 1014.79 1014.83 1014.82 1014.76 1014.65 1014.50 1014.35 1014.22 1014.15 1014.16 1014.27 1014.48 1014.79 1015.17 1015.61 1016.08 1016.58 1017.09
1021.43 1021.40 1021.31 1021.13 1020.88 1020.54 1020.16 1019.74 1019.32 1018.90 1018.49 1018.09 1017.70 1017.29 1016.88 1016.44 1016.00 1015.58 1015.19 1014.87 1014.62 1014.46 1014.38 1014.36 1014.38 1014.40 1014.39 1014.32 1014.19 1014.00 1013.77 1013.54 1013.33 1013.20 1013.16 1013.25 1013.46 1013.78 1014.21 1014.71 1015.27 1015.85 1016.45
1021.79 1021.74 1021.62 1021.41 1021.12 1020.75 1020.32 1019.87 1019.40 1018.95 1018.51 1018.07 1017.65 1017.21 1016.76 1016.31 1015.85 1015.41 1015.02 1014.69 1014.44 1014.27 1014.18 1014.15 1014.13 1014.11 1014.05 1013.92 1013.72 1013.45 1013.15 1012.84 1012.56 1012.37 1012.29 1012.36 1012.57 1012.92 1013.39 1013.96 1014.59 1015.25 1015.92
1022.03 1021.96 1021.81 1021.57 1021.24 1020.84 1020.39 1019.92 1019.44 1018.97 1018.52 1018.07 1017.62 1017.17 1016.70 1016.22 1015.75 1015.30 1014.89 1014.54 1014.28 1014.10 1014.00 1013.94 1013.90 1013.85 1013.75 1013.57 1013.31 1012.99 1012.63 1012.26 1011.94 1011.71 1011.61 1011.68 1011.90 1012.28 1012.80 1013.42 1014.10 1014.82 1015.53
1022.16 1022.08 1021.90 1021.63 1021.27 1020.85 1020.38 1019.90 1019.42 1018.96 1018.50 1018.05 1017.60 1017.13 1016.64 1016.14 1015.65 1015.16 1014.73 1014.36 1014.08 1013.88 1013.75 1013.67 1013.61 1013.53 1013.41 1013.21 1012.93 1012.59 1012.21 1011.83 1011.51 1011.27 1011.18 1011.25 1011.50 1011.91 1012.46 1013.11 1013.82 1014.56 1015.28
1022.24 1022.12 1021.91 1021.61 1021.22 1020.78 1020.30 1019.82 1019.35 1018.89 1018.44 1017.99 1017.53 1017.05 1016.55 1016.02 1015.49 1014.98 1014.50 1014.10 1013.78 1013.55 1013.39 1013.30 1013.23 1013.14 1013.02 1012.83 1012.57 1012.25 1011.90 1011.56 1011.26 1011.06 1011.00 1011.11 1011.38 1011.81 1012.37 1013.02 1013.73 1014.46 1015.16
1022.29 1022.14 1021.89 1021.54 1021.12 1020.65 1020.16 1019.67 1019.20 1018.75 1018.31 1017.86 1017.41 1016.92 1016.39 1015.84 1015.28 1014.72 1014.21 1013.76 1013.41 1013.14 1012.96 1012.85 1012.78 1012.71 1012.61 1012.47 1012.26 1012.00 1011.72 1011.44 1011.21 1011.08 1011.07 1011.21 1011.51 1011.94 1012.49 1013.13 1013.80 1014.48 1015.13
1022.37 1022.16 1021.85 1021.44 1020.97 1020.47 1019.95 1019.46 1018.98 1018.54 1018.11 1017.67 1017.21 1016.72 1016.19 1015.61 1015.03 1014.44 1013.90 1013.42 1013.03 1012.74 1012.55 1012.44 1012.37 1012.33 1012.28 1012.19 1012.06 1011.89 1011.69 1011.51 1011.37 1011.31 1011.36 1011.54 1011.85 1012.27 1012.80 1013.38 1013.99 1014.60 1015.19
1022.49 1022.20 1021.81 1021.33 1020.80 1020.24 1019.70 1019.18 1018.71 1018.26 1017.84 1017.42 1016.97 1016.49 1015.97 1015.40 1014.81 1014.22 1013.67 1013.18 1012.78 1012.48 1012.29 1012.18 1012.14 1012.13 1012.12 1012.10 1012.05 1011.97 1011.87 1011.79 1011.73 1011.74 1011.84 1012.04 1012.35 1012.75 1013.22 1013.74 1014.28 1014.82 1015.33
1022.64 1022.24 1021.75 1021.18 1020.58 1019.97 1019.39 1018.85 1018.37 1017.94 1017.54 1017.14 1016.73 1016.29 1015.80 1015.27 1014.72 1014.16 1013.64 1013.17 1012.79 1012.51 1012.32 1012.23 1012.21 1012.24 1012.28 1012.31 1012.33 1012.33 1012.31 1012.29 1012.31 1012.37 1012.50 1012.70 1012.99 1013.35 1013.76 1014.21 1014.67 1015.12 1015.56
1022.77 1022.25 1021.65 1020.99 1020.30 1019.64 1019.03 1018.48 1018.00 1017.59 1017.23 1016.88 1016.53 1016.16 1015.75 1015.30 1014.83 1014.35 1013.89 1013.49 1013.16 1012.91 1012.76 1012.70 1012.70 1012.75 1012.82 1012.89 1012.95 1012.99 1013.02 1013.05 1013.10 1013.18 1013.31 1013.50 1013.76 1014.06 1014.41 1014.78 1015.17 1015.56 1015.94
1022.81 1022.16 1021.45 1020.70 1019.96 1019.25 1018.62 1018.08 1017.62 1017.26 1016.95 1016.69 1016.43 1016.16 1015.87 1015.55 1015.20 1014.84 1014.49 1014.19 1013.93 1013.76 1013.65 1013.62 1013.64 1013.70 1013.78 1013.86 1013.93 1013.98 1014.02 1014.06 1014.11 1014.18 1014.29 1014.44 1014.65 1014.89 1015.18 1015.48 1015.81 1016.14 1016.49
1022.70 1021.94 1021.14 1020.32 1019.53 1018.82 1018.19 1017.67 1017.27 1016.97 1016.75 1016.59 1016.45 1016.32 1016.18 1016.01 1015.82 1015.61 1015.41 1015.22 1015.07 1014.97 1014.92 1014.92 1014.96 1015.02 1015.09 1015.15 1015.20 1015.23 1015.25 1015.27 1015.28 1015.33 1015.40 1015.50 1015.65 1015.84 1016.07 1016.32 1016.60 1016.89 1017.21
1022.41 1021.57 1020.71 1019.86 1019.07 1018.36 1017.77 1017.31 1016.98 1016.76 1016.65 1016.61 1016.62 1016.64 1016.66 1016.66 1016.64 1016.60 1016.55 1016.50 1016.46 1016.44 1016.45 1016.48 1016.52 1016.57 1016.61 1016.64 1016.65 1016.64 1016.62 1016.59 1016.57 1016.57 1016.59 1016.65 1016.75 1016.89 1017.06 1017.27 1017.51 1017.78 1018.07
1021.95 1021.07 1020.20 1019.36 1018.60 1017.94 1017.42 1017.03 1016.79 1016.68 1016.69 1016.77 1016.92 1017.10 1017.28 1017.45 1017.59 1017.71 1017.80 1017.88 1017.94 1018.00 1018.05 1018.09 1018.14 1018.16 1018.17 1018.16 1018.13 1018.08 1018.01 1017.94 1017.88 1017.83 1017.81 1017.82 1017.88 1017.98 1018.11 1018.29 1018.49 1018.74 1019.01
1021.39 1020.53 1019.68 1018.90 1018.21 1017.63 1017.19 1016.91 1016.77 1016.76 1016.88 1017.09 1017.36 1017.67 1017.99 1018.29 1018.57 1018.82 1019.03 1019.21 1019.35 1019.45 1019.54 1019.59 1019.62 1019.63 1019.61 1019.56 1019.48 1019.39 1019.29 1019.18 1019.09 1019.01 1018.96 1018.95 1018.97 1019.04 1019.14 1019.29 1019.47 1019.68 1019.93
1020.84 1020.03 1019.26 1018.57 1017.97 1017.49 1017.16 1016.97 1016.93 1017.02 1017.23 1017.53 1017.90 1018.31 1018.73 1019.13 1019.50 1019.84 1020.12 1020.36 1020.54 1020.68 1020.77 1020.82 1020.83 1020.81 1020.76 1020.68 1020.58 1020.46 1020.34 1020.22 1020.12 1020.03 1019.97 1019.94 1019.94 1019.99 1020.07 1020.19 1020.34 1020.52 1020.73
1020.41 1019.69 1019.03 1018.44 1017.96 1017.59 1017.36 1017.26 1017.30 1017.47 1017.75 1018.11 1018.53 1018.99 1019.45 1019.90 1020.31 1020.68 1020.99 1021.25 1021.44 1021.57 1021.65 1021.68 1021.67 1021.63 1021.55 1021.45 1021.34 1021.22 1021.10 1020.98 1020.89 1020.80 1020.75 1020.72 1020.72 1020.75 1020.81 1020.91 1021.03 1021.18 1021.35
1020.22 1019.61 1019.06 1018.59 1018.21 1017.95 1017.81 1017.79 1017.89 1018.10 1018.40 1018.78 1019.21 1019.67 1020.13 1020.57 1020.97 1021.32 1021.61 1021.84 1022.00 1022.10 1022.15 1022.15 1022.11 1022.04 1021.95 1021.84 1021.72 1021.61 1021.51 1021.42 1021.34 1021.29 1021.25 1021.24 1021.25 1021.28 1021.33 1021.40 1021.49 1021.61 1021.75
1020.32 1019.82 1019.38 1019.01 1018.74 1018.55 1018.48 1018.50 1018.63 1018.85 1019.14 1019.50 1019.90 1020.31 1020.72 1021.11 1021.45 1021.75 1021.99 1022.16 1022.27 1022.32 1022.32 1022.28 1022.21 1022.11 1022.00 1021.89 1021.78 1021.69 1021.61 1021.54 1021.50 1021.48 1021.47 1021.48 1021.51 1021.54 1021.59 1021.65 1021.73 1021.82 1021.92
1020.68 1020.29 1019.94 1019.66 1019.46 1019.33 1019.29 1019.34 1019.46 1019.66 1019.91 1020.21 1020.54 1020.88 1021.21 1021.51 1021.77 1021.99 1022.15 1022.25 1022.30 1022.29 1022.24 1022.15 1022.04 1021.92 1021.80 1021.68 1021.57 1021.49 1021.43 1021.40 1021.39 1021.40 1021.42 1021.46 1021.51 1021.57 1021.62 1021.69 1021.76 1021.84 1021.92
1021.25 1020.94 1020.67 1020.45 1020.29 1020.20 1020.17 1020.20 1020.29 1020.44 1020.63 1020.85 1021.09 1021.33 1021.56 1021.76 1021.93 1022.06 1022.14 1022.16 1022.14 1022.08 1021.98 1021.85 1021.70 1021.55 1021.41 1021.28 1021.17 1021.09 1021.04 1021.03 1021.04 1021.08 1021.13 1021.21 1021.28 1021.37 1021.45 1021.53 1021.62 1021.70 1021.78
Thickness
5614 5613 5611 5610 5608 5606 5604 5602 5600 5597 5595 5592 5589 5586 5583 5580 5577 5573 5572 5568 5565 5562 5558 5553 5550 5543 5537 5532 5525 5519 5513 5507 5513 5526 5514 5508 5499 5493 5486 5479 5472 5465 5459
5597 5597 5596 5594 5592 5591 5589 5588 5586 5584 5582 5580 5577 5575 5572 5569 5566 5563 5561 5558 5556 5554 5550 5546 5543 5537 5532 5526 5520 5515 5509 5503 5501 5510 5506 5496 5490 5484 5477 5470 5463 5456 5450
5580 5580 5580 5578 5577 5575 5574 5573 5572 5570 5569 5567 5565 5563 5561 5558 5555 5552 5550 5548 5546 5545 5541 5538 5535 5528 5525 5519 5513 5509 5504 5498 5493 5494 5497 5487 5479 5472 5464 5457 5451 5445 5439
5562 5562 5561 5560 5559 5558 5558 5557 5557 5556 5555 5554 5552 5551 5549 5546 5543 5541 5538 5537 5535 5534 5531 5527 5523 5518 5514 5509 5504 5499 5494 5489 5484 5482 5482 5475 5466 5459 5451 5446 5440 5434 5427
5542 5543 5542 5541 5541 5541 5541 5541 5541 5540 5540 5539 5538 5537 5535 5533 5531 5527 5525 5524 5522 5521 5518 5515 5511 5507 5502 5497 5492 5488 5482 5478 5474 5471 5469 5462 5455 5446 5442 5437 5430 5422 5413
5524 5524 5524 5523 5523 5523 5523 5523 5524 5524 5524 5523 5522 5521 5521 5519 5517 5514 5511 5509 5507 5506 5504 5501 5497 5492 5488 5483 5478 5474 5469 5465 5462 5458 5456 5453 5450 5441 5432 5424 5415 5405 5398
5507 5507 5506 5506 5506 5505 5505 5505 5506 5506 5506 5506 5505 5504 5504 5503 5501 5498 5495 5492 5492 5490 5487 5484 5481 5477 5471 5467 5464 5460 5456 5452 5447 5443 5442 5442 5436 5429 5419 5409 5403 5396 5389
5491 5490 5489 5489 5488 5488 5488 5488 5487 5488 5487 5487 5487 5486 5486 5485 5482 5480 5477 5475 5474 5473 5469 5466 5462 5459 5454 5448 5445 5443 5441 5437 5432 5427 5425 5424 5419 5413 5406 5398 5389 5377 5367
5474 5473 5471 5469 5469 5470 5470 5470 5469 5469 5470 5469 5468 5467 5466 5467 5463 5461 5457 5455 5454 5453 5450 5446 5441 5438 5435 5429 5425 5423 5422 5420 5415 5410 5407 5404 5400 5394 5387 5378 5369 5360 5350
5455 5453 5451 5450 5449 5450 5450 5450 5449 5448 5450 5449 5449 5447 5445 5445 5443 5440 5436 5433 5432 5432 5429 5425 5421 5417 5414 5409 5405 5403 5402 5400 5395 5391 5387 5384 5380 5375 5369 5362 5355 5345 5336
5434 5432 5431 5430 5429 5429 5430 5430 5428 5427 5427 5428 5428 5428 5424 5422 5420 5417 5414 5410 5408 5407 5406 5403 5399 5395 5392 5389 5385 5382 5381 5378 5374 5370 5367 5364 5359 5354 5348 5342 5336 5329 5322
5413 5413 5411 5410 5409 5409 5409 5409 5407 5405 5405 5405 5404 5405 5403 5399 5396 5394 5391 5388 5384 5381 5381 5379 5376 5373 5371 5368 5364 5362 5359 5356 5352 5348 5345 5341 5337 5333 5327 5321 5315 5309 5304
5392 5391 5391 5391 5390 5388 5387 5388 5387 5384 5382 5382 5380 5379 5380 5376 5372 5370 5368 5365 5362 5359 5357 5356 5354 5351 5349 5346 5343 5341 5338 5334 5330 5327 5324 5320 5316 5311 5307 5301 5295 5290 5284
5369 5369 5370 5370 5370 5369 5367 5366 5364 5363 5360 5359 5357 5355 5355 5353 5350 5348 5345 5343 5340 5337 5335 5333 5331 5329 5327 5324 5321 5319 5316 5313 5309 5306 5302 5298 5294 5290 5286 5281 5276 5270 5264
5347 5347 5348 5347 5347 5348 5348 5345 5344 5343 5338 5337 5336 5333 5331 5332 5331 5328 5325 5323 5320 5317 5314 5311 5308 5305 5303 5302 5299 5296 5294 5291 5288 5285 5282 5278 5274 5270 5265 5261 5257 5252 5246
5325 5326 5325 5325 5325 5325 5325 5327 5326 5323 5322 5318 5316 5313 5311 5311 5311 5309 5306 5304 5302 5300 5295 5290 5287 5284 5282 5280 5278 5275 5272 5270 5267 5265 5262 5259 5255 5251 5246 5242 5238 5233 5229
5298 5299 5300 5302 5302 5302 5301 5302 5304 5304 5301 5298 5295 5293 5291 5291 5290 5289 5287 5285 5282 5279 5274 5269 5266 5263 5261 5260 5258 5256 5253 5250 5249 5246 5243 5240 5237 5233 5229 5224 5220 5215 5210
5276 5277 5277 5279 5280 5280 5280 5280 5279 5280 5279 5276 5273 5272 5270 5270 5269 5269 5268 5265 5259 5255 5251 5247 5245 5243 5241 5239 5238 5236 5234 5232 5230 5228 5224 5221 5218 5215 5211 5206 5202 5197 5192
5257 5258 5259 5259 5260 5261 5260 5260 5259 5258 5256 5255 5252 5251 5249 5249 5248 5247 5246 5242 5237 5233 5230 5227 5225 5223 5222 5220 5219 5217 5215 5213 5211 5208 5205 5202 5199 5196 5192 5188 5183 5179 5174
5240 5240 5241 5241 5242 5242 5242 5242 5241 5240 5237 5235 5233 5231 5229 5228 5226 5223 5220 5218 5216 5213 5210 5208 5206 5205 5204 5202 5201 5200 5198 5196 5193 5191 5188 5184 5181 5178 5174 5170 5165 5160 5155
5223 5223 5224 5224 5225 5225 5224 5224 5223 5222 5220 5216 5214 5214 5214 5209 5205 5202 5199 5197 5195 5193 5192 5191 5189 5187 5186 5185 5184 5183 5181 5178 5176 5173 5170 5167 5163 5160 5156 5152 5147 5141 5136
5207 5207 5207 5207 5207 5207 5206 5206 5205 5203 5201 5198 5195 5193 5195 5190 5187 5184 5182 5179 5177 5176 5176 5175 5173 5171 5169 5168 5167 5166 5163 5161 5158 5155 5152 5149 5145 5142 5138 5133 5128 5123 5117
5191 5191 5191 5191 5190 5190 5189 5188 5187 5185 5183 5181 5179 5176 5174 5173 5171 5168 5166 5164 5163 5162 5161 5160 5158 5156 5154 5153 5151 5149 5147 5144 5141 5138 5135 5131 5127 5123 5119 5114 5109 5103 5097
5174 5174 5174 5174 5174 5174 5173 5171 5171 5169 5167 5165 5163 5161 5159 5157 5155 5154 5152 5151 5149 5148 5146 5145 5143 5141 5139 5137 5135 5133 5131 5128 5125 5122 5119 5114 5110 5105 5100 5095 5089 5084 5078
5157 5157 5157 5157 5157 5157 5156 5155 5154 5153 5151 5150 5148 5147 5145 5144 5142 5140 5139 5137 5136 5134 5132 5130 5128 5126 5124 5122 5120 5118 5115 5113 5110 5106 5102 5097 5092 5086 5081 5075 5070 5064 5058
5140 5141 5141 5141 5141 5141 5141 5140 5139 5138 5137 5136 5135 5133 5132 5130 5129 5127 5126 5124 5122 5121 5119 5117 5114 5112 5110 5107 5105 5102 5099 5097 5094 5090 5085 5080 5074 5068 5062 5056 5051 5044 5039